DW3310 Weather Reports


Display with metric or nautical units.
time (UTC)temp
F
wind
direction
speed
MPH
gust
MPH
rain 1hr
in
rain 24hr
in
rain mn
in
humidity
%
barometer
mb
20200711002019 70 66 2.0 8.0 0.00 0.00 0.00 93 1015.0
20200711001638 70 135 2.0 7.0 0.00 0.00 0.00 93 1014.2
20200711001546 70 135 2.0 10.0 0.00 0.00 0.00 93 1014.9
20200711001029 70 135 2.0 15.0 0.00 0.00 0.00 92 1014.9
20200711000521 70 150 3.0 15.0 0.00 0.00 0.00 92 1015.0
20200711000047 71 131 6.0 15.0 0.00 0.00 0.00 92 1014.2
20200711000031 71 108 4.0 11.0 0.00 0.00 0.00 91 1015.0
20200710235544 71 82 3.0 9.0 0.00 0.00 0.00 91 1014.9
20200710235031 71 121 3.0 9.0 0.00 0.00 0.00 90 1015.0
20200710234548 71 171 2.0 8.0 0.00 0.00 0.00 90 1014.3
20200710234523 71 146 3.0 11.0 0.00 0.00 0.00 89 1015.1
20200710234027 71 113 4.0 11.0 0.00 0.00 0.00 89 1015.1
20200710233530 71 130 4.0 9.0 0.00 0.00 0.00 88 1015.3
20200710233138 72 122 3.0 9.0 0.00 0.00 0.00 88 1014.5
20200710233041 72 130 3.0 9.0 0.00 0.00 0.00 87 1015.4
20200710232530 72 177 2.0 9.0 0.00 0.00 0.00 87 1015.4
20200710232021 72 152 2.0 10.0 0.00 0.00 0.00 86 1015.4
20200710231554 72 138 3.0 10.0 0.00 0.00 0.00 86 1014.6
20200710231531 72 109 2.0 11.0 0.00 0.00 0.00 86 1015.5
20200710231021 72 49 2.0 11.0 0.00 0.00 0.00 86 1015.5
20200710230521 72 153 4.0 11.0 0.00 0.00 0.00 85 1015.5
20200710230154 72 182 2.0 11.0 0.00 0.00 0.00 85 1014.7
20200710230050 72 167 3.0 12.0 0.00 0.00 0.00 84 1015.6
20200710225532 72 173 5.0 12.0 0.00 0.00 0.00 84 1015.5
20200710225019 73 144 5.0 12.0 0.00 0.00 0.00 84 1015.6
20200710224555 73 130 5.0 15.0 0.00 0.00 0.00 84 1015.5
20200710224546 73 178 6.0 14.0 0.00 0.00 0.00 85 1014.6
20200710224019 73 91 5.0 15.0 0.00 0.00 0.00 84 1015.5
20200710223520 73 113 5.0 13.0 0.00 0.00 0.00 83 1015.4
20200710223055 73 173 6.0 12.0 0.00 0.00 0.00 84 1014.5
20200710223037 73 108 5.0 12.0 0.00 0.00 0.00 83 1015.5
20200710222538 74 150 6.0 12.0 0.00 0.00 0.00 83 1015.4
20200710222021 74 212 4.0 12.0 0.00 0.00 0.00 82 1015.5
20200710221656 74 175 5.0 12.0 0.00 0.00 0.00 82 1015.5
20200710221606 74 136 6.0 11.0 0.00 0.00 0.00 83 1014.6
20200710221029 74 165 4.0 11.0 0.00 0.00 0.00 82 1015.6
20200710220530 74 139 4.0 12.0 0.00 0.00 0.00 81 1015.8
20200710220133 75 116 5.0 11.0 0.00 0.00 0.00 82 1014.7
20200710220038 75 129 3.0 12.0 0.00 0.00 0.00 81 1015.6
20200710215527 75 142 2.0 13.0 0.00 0.00 0.00 81 1015.6
20200710215028 75 138 7.0 13.0 0.00 0.00 0.00 80 1015.7
20200710214543 75 137 4.0 10.0 0.00 0.00 0.00 81 1014.8
20200710214529 75 110 4.0 11.0 0.00 0.00 0.00 81 1015.7
20200710214036 75 107 4.0 14.0 0.00 0.00 0.00 80 1015.6
20200710213519 75 0 3.0 14.0 0.00 0.00 0.00 79 1015.6
20200710213101 76 115 5.0 14.0 0.00 0.00 0.00 79 1014.8
20200710213020 76 103 5.0 11.0 0.00 0.00 0.00 79 1015.7
20200710212519 77 103 5.0 11.0 0.00 0.00 0.00 77 1015.9
20200710212019 77 109 1.0 9.0 0.00 0.00 0.00 77 1016.0
20200710211538 77 180 3.0 9.0 0.00 0.00 0.00 78 1015.0
20200710211523 77 179 4.0 10.0 0.00 0.00 0.00 78 1015.9
20200710211021 77 172 4.0 11.0 0.00 0.00 0.00 78 1015.9
20200710210520 77 157 2.0 11.0 0.00 0.00 0.00 78 1016.0
20200710210050 76 121 3.0 10.0 0.00 0.00 0.00 77 1015.2
20200710210039 76 238 3.0 11.0 0.00 0.00 0.00 77 1016.0
20200710205521 77 161 6.0 13.0 0.00 0.00 0.00 74 1016.3
20200710205021 77 201 5.0 15.0 0.00 0.00 0.00 73 1016.3
20200710204527 77 30 7.0 17.0 0.00 0.00 0.00 73 1015.3
20200710204522 77 88 7.0 17.0 0.00 0.00 0.00 73 1016.2
20200710204025 78 211 6.0 17.0 0.00 0.00 0.00 72 1016.1
20200710203521 78 113 5.0 13.0 0.00 0.00 0.00 75 1016.2
20200710203100 78 102 3.0 11.0 0.00 0.00 0.00 75 1016.1
20200710203035 78 130 5.0 11.0 0.00 0.00 0.00 75 1015.3
20200710202519 78 173 3.0 10.0 0.00 0.00 0.00 74 1016.2
20200710202021 78 126 4.0 10.0 0.00 0.00 0.00 73 1016.3
20200710201546 78 162 4.0 14.0 0.00 0.00 0.00 72 1015.3
20200710201541 78 163 4.0 13.0 0.00 0.00 0.00 71 1016.1
20200710201033 78 153 5.0 13.0 0.00 0.00 0.00 69 1016.2
20200710200520 79 196 5.0 12.0 0.00 0.00 0.00 68 1016.3
20200710200026 80 155 6.0 12.0 0.00 0.00 0.00 68 1015.5
20200710195520 80 205 3.0 12.0 0.00 0.00 0.00 68 1016.4
20200710195021 81 136 5.0 12.0 0.00 0.00 0.00 66 1016.4
20200710194554 81 129 4.0 13.0 0.00 0.00 0.00 65 1016.4
20200710194533 81 128 4.0 11.0 0.00 0.00 0.00 66 1015.6
20200710194021 82 140 5.0 13.0 0.00 0.00 0.00 62 1016.4
20200710193525 83 178 4.0 12.0 0.00 0.00 0.00 62 1016.5
20200710193052 82 125 3.0 12.0 0.00 0.00 0.00 64 1015.6
20200710193026 82 125 3.0 14.0 0.00 0.00 0.00 64 1016.4
20200710192533 82 265 3.0 14.0 0.00 0.00 0.00 64 1016.4
20200710192031 83 168 4.0 12.0 0.00 0.00 0.00 62 1016.4
20200710191554 83 113 3.0 13.0 0.00 0.00 0.00 63 1015.5
20200710191539 83 113 4.0 13.0 0.00 0.00 0.00 63 1016.4
20200710191021 83 173 6.0 13.0 0.00 0.00 0.00 60 1016.4
20200710190529 83 115 2.0 16.0 0.00 0.00 0.00 61 1016.4
20200710190039 83 95 6.0 16.0 0.00 0.00 0.00 58 1016.5
20200710190024 83 108 8.0 16.0 0.00 0.00 0.00 58 1015.6
20200710185552 83 209 2.0 9.0 0.00 0.00 0.00 59 1016.4
20200710185020 83 142 3.0 10.0 0.00 0.00 0.00 59 1016.4
20200710184527 83 175 4.0 10.0 0.00 0.00 0.00 59 1015.4
20200710184524 83 167 4.0 10.0 0.00 0.00 0.00 58 1016.4
20200710184021 83 192 1.0 17.0 0.00 0.00 0.00 58 1016.4
20200710183520 83 123 6.0 17.0 0.00 0.00 0.00 55 1016.5
20200710183027 84 132 4.0 10.0 0.00 0.00 0.00 58 1015.5
20200710183023 84 121 4.0 11.0 0.00 0.00 0.00 58 1016.5
20200710182528 85 155 4.0 11.0 0.00 0.00 0.00 57 1016.5
20200710182019 85 24 2.0 9.0 0.00 0.00 0.00 60 1016.5
20200710181557 85 117 3.0 9.0 0.00 0.00 0.00 56 1016.6
20200710181527 85 123 3.0 7.0 0.00 0.00 0.00 57 1015.7
20200710181026 85 109 3.0 9.0 0.00 0.00 0.00 57 1016.7
20200710180528 85 126 1.0 9.0 0.00 0.00 0.00 58 1016.7
20200710180039 85 118 4.0 11.0 0.00 0.00 0.00 58 1015.8
20200710180023 85 130 4.0 11.0 0.00 0.00 0.00 58 1016.8
20200710175526 86 107 5.0 11.0 0.00 0.00 0.00 56 1016.8
20200710175025 87 200 3.0 8.0 0.00 0.00 0.00 56 1016.7
20200710174518 87 92 1.0 8.0 0.00 0.00 0.00 57 1016.8
20200710174511 87 90 1.0 8.0 0.00 0.00 0.00 59 1015.9
20200710174019 86 0 1.0 8.0 0.00 0.00 0.00 58 1016.9
20200710173527 86 130 2.0 9.0 0.00 0.00 0.00 58 1016.9
20200710173026 87 105 2.0 9.0 0.00 0.00 0.00 58 1017.0
20200710173024 87 107 3.0 9.0 0.00 0.00 0.00 58 1015.9
20200710172520 87 58 2.0 7.0 0.00 0.00 0.00 58 1017.1
20200710172021 87 113 2.0 7.0 0.00 0.00 0.00 57 1016.9
20200710171728 86 0 1.0 6.0 0.00 0.00 0.00 59 1017.1
20200710171528 86 48 1.0 6.0 0.00 0.00 0.00 59 1016.1
20200710171020 86 215 2.0 11.0 0.00 0.00 0.00 58 1017.1
20200710170526 85 107 2.0 11.0 0.00 0.00 0.00 60 1017.0
20200710170114 84 207 1.0 9.0 0.00 0.00 0.00 64 1016.1
20200710170046 84 159 2.0 9.0 0.00 0.00 0.00 64 1017.1
20200710165530 83 190 3.0 10.0 0.00 0.00 0.00 61 1017.1
20200710165020 83 121 3.0 10.0 0.00 0.00 0.00 61 1017.2
20200710164643 83 178 4.0 10.0 0.00 0.00 0.00 61 1016.2
20200710164544 83 193 3.0 9.0 0.00 0.00 0.00 62 1017.2
20200710164024 83 147 3.0 9.0 0.00 0.00 0.00 63 1017.3
20200710163521 83 229 2.0 10.0 0.00 0.00 0.00 63 1017.2
20200710163024 83 209 5.0 10.0 0.00 0.00 0.00 64 1017.1
20200710162519 83 221 5.0 9.0 0.00 0.00 0.00 65 1017.3
20200710162026 83 161 3.0 9.0 0.00 0.00 0.00 68 1017.2
20200710161623 83 155 2.0 10.0 0.00 0.00 0.00 69 1016.3
20200710161550 83 148 2.0 11.0 0.00 0.00 0.00 68 1017.2
20200710161026 84 220 3.0 11.0 0.00 0.00 0.00 68 1017.2
20200710160520 83 273 1.0 6.0 0.00 0.00 0.00 68 1017.1
20200710160231 83 186 2.0 5.0 0.00 0.00 0.00 69 1016.2
20200710160100 83 100 2.0 6.0 0.00 0.00 0.00 68 1017.0
20200710155520 82 107 2.0 9.0 0.00 0.00 0.00 68 1017.0
20200710155020 83 159 4.0 9.0 0.00 0.00 0.00 69 1017.0
20200710154630 82 161 0.0 8.0 0.00 0.00 0.00 71 1016.2
20200710154553 82 162 1.0 8.0 0.00 0.00 0.00 70 1016.9
20200710154032 82 194 3.0 10.0 0.00 0.00 0.00 68 1016.9
20200710153524 81 115 2.0 11.0 0.00 0.00 0.00 71 1017.0
20200710153132 81 146 5.0 10.0 0.00 0.00 0.00 71 1016.3
20200710153107 81 105 5.0 11.0 0.00 0.00 0.00 71 1017.1
20200710152519 81 119 5.0 12.0 0.00 0.00 0.00 73 1017.0
20200710152038 81 208 5.0 12.0 0.00 0.00 0.00 71 1017.0
20200710151608 81 155 4.0 11.0 0.00 0.00 0.00 74 1016.2
20200710151533 81 155 5.0 11.0 0.00 0.00 0.00 73 1017.0
20200710151028 81 210 3.0 10.0 0.00 0.00 0.00 73 1016.9
20200710150522 81 155 4.0 9.0 0.00 0.00 0.00 74 1017.0
20200710150116 81 126 3.0 8.0 0.00 0.00 0.00 80 1016.2
20200710150039 81 103 2.0 8.0 0.00 0.00 0.00 80 1017.1
20200710145523 80 9 3.0 8.0 0.00 0.00 0.00 80 1017.1
20200710145029 80 167 2.0 7.0 0.00 0.00 0.00 82 1017.2
20200710144655 79 98 2.0 7.0 0.00 0.00 0.00 82 1016.4
20200710144555 80 98 3.0 7.0 0.00 0.00 0.00 81 1017.2
20200710144033 80 144 2.0 8.0 0.00 0.00 0.00 82 1017.2
20200710143527 79 92 1.0 8.0 0.00 0.00 0.00 82 1017.3
20200710143046 79 94 2.0 5.0 0.00 0.00 0.00 83 1016.5
20200710143031 79 69 2.0 7.0 0.00 0.00 0.00 83 1017.2
20200710142534 79 125 1.0 7.0 0.00 0.00 0.00 83 1017.2
20200710142024 78 128 2.0 7.0 0.00 0.00 0.00 84 1017.4
20200710141559 78 48 2.0 7.0 0.00 0.00 0.00 86 1016.6
20200710141552 77 26 3.0 7.0 0.00 0.00 0.00 86 1017.4
20200710141022 77 87 3.0 7.0 0.00 0.00 0.00 86 1017.4
20200710140520 77 128 2.0 7.0 0.00 0.00 0.00 88 1017.4
20200710140057 76 111 3.0 8.0 0.00 0.00 0.00 90 1016.5
20200710140029 76 113 2.0 8.0 0.00 0.00 0.00 89 1017.4
20200710135519 76 70 3.0 8.0 0.00 0.00 0.00 89 1017.5
20200710135024 75 98 2.0 8.0 0.00 0.00 0.00 90 1017.4
20200710134600 75 30 2.0 8.0 0.00 0.00 0.00 90 1017.5
20200710134557 75 29 1.0 8.0 0.00 0.00 0.00 91 1016.6
20200710134019 75 134 3.0 8.0 0.00 0.00 0.00 89 1017.4
20200710133535 75 0 2.0 8.0 0.00 0.00 0.00 89 1017.7
20200710133132 75 70 2.0 8.0 0.00 0.00 0.00 89 1016.8
20200710133045 75 70 1.0 8.0 0.00 0.00 0.00 89 1017.6
20200710132521 75 111 2.0 8.0 0.00 0.00 0.00 89 1017.6
20200710132020 75 155 3.0 8.0 0.00 0.00 0.00 89 1017.4
20200710131557 75 111 2.0 6.0 0.00 0.00 0.00 91 1016.7
20200710131524 75 111 2.0 6.0 0.00 0.00 0.00 90 1017.4
20200710131021 74 109 3.0 7.0 0.00 0.00 0.00 91 1017.4
20200710130527 74 88 3.0 7.0 0.00 0.00 0.00 91 1017.6
20200710130108 74 101 0.0 6.0 0.00 0.00 0.00 93 1016.8
20200710130046 74 101 1.0 5.0 0.00 0.00 0.00 93 1017.6
20200710125525 73 96 1.0 7.0 0.00 0.00 0.00 94 1017.6
20200710125020 73 130 2.0 7.0 0.00 0.00 0.00 93 1017.8
20200710124609 73 68 4.0 7.0 0.00 0.00 0.00 91 1017.7
20200710124603 73 64 4.0 6.0 0.00 0.00 0.00 91 1016.9
20200710124025 74 94 2.0 5.0 0.00 0.00 0.00 90 1017.8
20200710123542 74 76 2.0 4.0 0.00 0.00 0.00 90 1017.8
20200710123053 74 58 0.0 2.0 0.00 0.00 0.00 92 1016.9
20200710123043 74 0 0.0 2.0 0.00 0.00 0.00 91 1017.7
20200710122520 74 52 0.0 2.0 0.00 0.00 0.00 92 1017.9
20200710122018 74 53 0.0 4.0 0.00 0.00 0.00 91 1018.0
20200710121531 74 52 2.0 4.0 0.00 0.00 0.00 91 1016.9
20200710121527 74 53 1.0 4.0 0.00 0.00 0.00 91 1017.8
20200710121025 74 47 2.0 4.0 0.00 0.00 0.00 89 1017.8
20200710120518 76 51 2.0 4.0 0.00 0.00 0.00 88 1017.7
20200710120036 76 60 1.0 4.0 0.00 0.00 0.00 89 1016.8
20200710120029 76 0 1.0 4.0 0.00 0.00 0.00 88 1017.6
20200710115543 76 40 1.0 4.0 0.00 0.00 0.00 89 1017.6
20200710115020 76 64 0.0 2.0 0.00 0.00 0.00 90 1017.4
20200710114557 75 64 0.0 0.0 0.00 0.00 0.00 91 1016.8
20200710114536 75 0 0.0 0.0 0.00 0.00 0.00 90 1017.5
20200710114021 75 0 0.0 0.0 0.00 0.00 0.00 91 1017.6
20200710113544 75 0 0.0 0.0 0.00 0.00 0.00 91 1017.5
20200710113038 74 0 0.0 0.0 0.00 0.00 0.00 91 1017.7
20200710113019 74 64 0.0 0.0 0.00 0.00 0.00 91 1016.8
20200710112538 74 0 0.0 0.0 0.00 0.00 0.00 91 1017.6
20200710112023 74 0 0.0 0.0 0.00 0.00 0.00 91 1017.5
20200710111538 74 0 0.0 0.0 0.00 0.00 0.00 92 1017.4
20200710111506 74 63 0.0 0.0 0.00 0.00 0.00 92 1016.7
20200710111019 74 0 0.0 0.0 0.00 0.00 0.00 92 1017.4
20200710110551 74 0 0.0 2.0 0.00 0.00 0.00 92 1017.5
20200710110100 74 0 0.0 2.0 0.00 0.00 0.00 93 1017.6
20200710110002 74 63 0.0 2.0 0.00 0.00 0.00 93 1016.8
20200710105521 74 63 0.0 4.0 0.00 0.00 0.00 93 1017.6
20200710105041 74 0 1.0 4.0 0.00 0.00 0.00 93 1017.7
20200710104637 74 64 1.0 3.0 0.00 0.00 0.00 94 1016.9
20200710104530 74 64 0.0 3.0 0.00 0.00 0.00 94 1017.7
20200710104019 74 0 1.0 2.0 0.00 0.00 0.00 94 1017.7
20200710103533 73 75 1.0 2.0 0.00 0.00 0.00 94 1017.7
20200710103148 73 78 0.0 0.0 0.00 0.00 0.00 94 1017.0
20200710103027 73 0 0.0 0.0 0.00 0.00 0.00 94 1017.8
20200710102520 73 0 0.0 2.0 0.00 0.00 0.00 94 1017.7
20200710102027 73 0 0.0 3.0 0.00 0.00 0.00 94 1017.7
20200710101623 72 78 0.0 3.0 0.00 0.00 0.00 95 1016.8
20200710101612 72 78 1.0 3.0 0.00 0.00 0.00 94 1017.6
20200710101020 72 78 1.0 2.0 0.00 0.00 0.00 94 1017.6
20200710100520 72 0 0.0 3.0 0.00 0.00 0.00 94 1017.6
20200710100257 72 75 0.0 3.0 0.00 0.00 0.00 95 1016.9
20200710100023 72 0 1.0 4.0 0.00 0.00 0.00 94 1017.6
20200710095520 72 0 1.0 6.0 0.00 0.00 0.00 94 1017.6
20200710095019 72 134 3.0 6.0 0.00 0.00 0.00 94 1017.6
20200710094743 72 139 2.0 4.0 0.00 0.00 0.00 95 1016.7
20200710094526 72 140 3.0 5.0 0.00 0.00 0.00 94 1017.5
20200710094019 72 133 1.0 4.0 0.00 0.00 0.00 94 1017.4
20200710093520 72 130 2.0 7.0 0.00 0.00 0.00 95 1017.5
20200710093208 72 123 3.0 7.0 0.00 0.00 0.00 95 1016.6
20200710093054 72 129 4.0 7.0 0.00 0.00 0.00 95 1017.4
20200710092534 72 131 3.0 7.0 0.00 0.00 0.00 95 1017.4
20200710092042 72 126 3.0 7.0 0.00 0.00 0.00 95 1017.4
20200710091623 72 132 4.0 5.0 0.00 0.00 0.00 96 1016.6
20200710091553 72 128 3.0 5.0 0.00 0.00 0.00 96 1017.4
20200710091019 72 159 3.0 6.0 0.00 0.00 0.00 96 1017.3
20200710090534 72 155 3.0 6.0 0.00 0.00 0.00 96 1017.3
20200710090048 72 186 3.0 5.0 0.00 0.00 0.00 97 1016.5
20200710090032 72 185 3.0 5.0 0.00 0.00 0.00 96 1017.2
20200710085533 72 179 3.0 5.0 0.00 0.00 0.00 96 1017.2
20200710085020 72 182 2.0 5.0 0.00 0.00 0.00 96 1017.2
20200710084646 72 97 1.0 2.0 0.00 0.00 0.00 97 1016.4
20200710084545 72 97 1.0 2.0 0.00 0.00 0.00 96 1017.2
20200710084027 72 94 0.0 3.0 0.00 0.00 0.00 96 1017.1
20200710083531 72 94 1.0 3.0 0.00 0.00 0.00 96 1017.1
20200710083110 72 94 1.0 2.0 0.00 0.00 0.00 97 1016.4
20200710083105 72 94 0.0 2.0 0.00 0.00 0.00 96 1017.1
20200710082521 72 0 1.0 2.0 0.00 0.00 0.00 96 1017.0
20200710082020 72 94 0.0 2.0 0.00 0.00 0.00 96 1017.0
20200710081601 71 94 0.0 2.0 0.00 0.00 0.00 96 1016.2
20200710081552 71 0 0.0 2.0 0.00 0.00 0.00 96 1017.0
20200710081025 71 0 0.0 2.0 0.00 0.00 0.00 96 1017.0
20200710080519 71 94 0.0 2.0 0.00 0.00 0.00 96 1017.1
20200710080120 71 94 0.0 3.0 0.00 0.00 0.00 96 1016.3
20200710080024 71 94 0.0 3.0 0.00 0.00 0.00 96 1017.1
20200710075532 71 94 1.0 3.0 0.00 0.00 0.00 96 1017.1
20200710075019 71 94 1.0 3.0 0.00 0.00 0.00 96 1017.0
20200710074557 71 94 1.0 2.0 0.00 0.00 0.00 96 1016.2
20200710074553 71 94 0.0 2.0 0.00 0.00 0.00 96 1017.1
20200710074018 71 0 0.0 2.0 0.00 0.00 0.00 96 1016.8
20200710073526 71 94 0.0 2.0 0.00 0.00 0.00 96 1016.9
20200710073117 71 94 0.0 2.0 0.00 0.00 0.00 96 1016.1
20200710073041 71 94 0.0 3.0 0.00 0.00 0.00 96 1016.9
20200710072520 71 0 0.0 4.0 0.00 0.00 0.00 96 1017.0
20200710072037 71 96 2.0 4.0 0.00 0.00 0.00 95 1016.9
20200710071545 71 103 1.0 2.0 0.00 0.00 0.00 96 1016.1
20200710071525 71 103 1.0 2.0 0.00 0.00 0.00 95 1016.9
20200710071020 71 103 1.0 4.0 0.00 0.00 0.00 95 1017.1
20200710070522 72 103 2.0 6.0 0.00 0.00 0.00 95 1017.0
20200710070057 72 92 4.0 6.0 0.00 0.00 0.00 95 1016.1
20200710070043 72 105 3.0 7.0 0.00 0.00 0.00 95 1017.0
20200710065529 72 96 3.0 7.0 0.00 0.00 0.00 95 1016.8
20200710065028 72 100 4.0 7.0 0.00 0.00 0.00 95 1016.7
20200710064617 72 93 4.0 7.0 0.00 0.00 0.00 94 1015.9
20200710064609 72 98 3.0 7.0 0.00 0.00 0.00 94 1016.8
20200710064018 72 121 2.0 4.0 0.00 0.00 0.00 93 1016.9
20200710063543 72 220 1.0 3.0 0.00 0.00 0.00 93 1016.7
20200710063114 72 237 0.0 3.0 0.00 0.00 0.00 94 1016.0
20200710063036 72 0 0.0 3.0 0.00 0.00 0.00 94 1016.9
20200710062520 72 237 1.0 4.0 0.00 0.00 0.00 93 1016.8
20200710062020 72 237 1.0 4.0 0.00 0.00 0.00 93 1016.8
20200710061534 73 101 2.0 6.0 0.00 0.00 0.00 92 1016.8
20200710061532 73 101 2.0 5.0 0.00 0.00 0.00 93 1015.9
20200710061017 73 96 3.0 6.0 0.00 0.00 0.00 92 1016.8
20200710060521 74 100 2.0 5.0 0.00 0.00 0.00 90 1016.9
20200710060046 74 335 2.0 8.0 0.00 0.00 0.00 90 1016.1
20200710060035 74 335 2.0 8.0 0.00 0.00 0.00 90 1016.8
20200710055519 74 315 3.0 9.0 0.00 0.00 0.00 90 1016.9
20200710055019 74 299 1.0 10.0 0.00 0.00 0.00 90 1017.0
20200710054538 74 265 4.0 10.0 0.00 0.00 0.00 90 1016.9
20200710054530 74 264 6.0 10.0 0.00 0.00 0.00 90 1016.1
20200710054019 74 296 1.0 8.0 0.00 0.00 0.00 90 1017.0
20200710053517 74 272 2.0 8.0 0.00 0.00 0.00 89 1016.9
20200710053040 74 299 1.0 3.0 0.00 0.00 0.00 90 1017.0
20200710052518 74 309 0.0 9.0 0.00 0.00 0.00 89 1017.0
20200710052018 74 277 2.0 9.0 0.00 0.00 0.00 89 1017.1
20200710051552 74 213 5.0 8.0 0.00 0.00 0.00 90 1016.2
20200710051519 74 210 4.0 8.0 0.00 0.00 0.00 90 1017.0
20200710051032 74 242 3.0 9.0 0.00 0.00 0.00 90 1017.0
20200710050524 74 188 4.0 10.0 0.00 0.00 0.00 91 1016.8
20200710050113 73 266 3.0 10.0 0.00 0.00 0.00 92 1016.1
20200710050032 73 266 4.0 10.0 0.00 0.00 0.00 92 1017.0
20200710045518 73 200 3.0 5.0 0.00 0.00 0.00 92 1017.0
20200710045017 74 62 0.0 3.0 0.00 0.00 0.00 92 1016.9
20200710044529 74 61 0.0 3.0 0.00 0.00 0.00 92 1016.2
20200710044024 74 61 1.0 3.0 0.00 0.00 0.00 91 1017.1
20200710043526 74 60 0.0 3.0 0.00 0.00 0.00 92 1017.1
20200710043108 74 60 0.0 3.0 0.00 0.00 0.00 91 1017.0
20200710043048 74 60 0.0 3.0 0.00 0.00 0.00 92 1016.3
20200710042527 74 60 1.0 4.0 0.00 0.00 0.00 91 1017.1
20200710042018 74 28 1.0 4.0 0.00 0.00 0.00 91 1017.2
20200710041550 74 28 2.0 4.0 0.00 0.00 0.00 90 1017.0
20200710041537 74 28 3.0 4.0 0.00 0.00 0.00 91 1016.2
20200710041030 74 89 2.0 4.0 0.00 0.00 0.00 90 1017.1
20200710040518 75 151 1.0 4.0 0.00 0.00 0.00 89 1016.9
20200710040031 75 276 0.0 3.0 0.00 0.00 0.00 89 1016.2
20200710040025 75 0 0.0 3.0 0.00 0.00 0.00 89 1017.0
20200710035518 75 13 0.0 3.0 0.00 0.00 0.00 88 1017.1
20200710035053 75 14 1.0 3.0 0.00 0.00 0.00 88 1017.0
20200710034526 75 0 0.0 1.0 0.00 0.00 0.00 88 1016.9
20200710034513 75 14 0.0 0.0 0.00 0.00 0.00 89 1016.2
20200710034018 75 0 0.0 2.0 0.00 0.00 0.00 88 1017.0
20200710033523 75 14 0.0 4.0 0.00 0.00 0.00 88 1016.9
20200710033031 75 246 0.0 5.0 0.00 0.00 0.00 89 1016.1
20200710033019 75 246 0.0 8.0 0.00 0.00 0.00 88 1016.8
20200710032529 75 202 2.0 8.0 0.00 0.00 0.00 89 1016.8
20200710032019 75 219 4.0 10.0 0.00 0.00 0.00 89 1016.7
20200710031629 75 231 4.0 10.0 0.00 0.00 0.00 89 1016.0
20200710031537 75 213 4.0 10.0 0.00 0.00 0.00 89 1016.7
20200710031025 75 197 5.0 8.0 0.00 0.00 0.00 89 1016.7
20200710030526 75 179 4.0 7.0 0.00 0.00 0.00 89 1016.6
20200710030025 75 218 3.0 9.0 0.00 0.00 0.00 90 1015.8
20200710030018 75 195 3.0 10.0 0.00 0.00 0.00 89 1016.7
20200710025518 75 196 4.0 11.0 0.00 0.00 0.00 89 1016.7
20200710025024 75 201 3.0 11.0 0.00 0.00 0.00 89 1016.7
20200710024521 75 186 5.0 11.0 0.00 0.00 0.00 90 1016.6
20200710024515 75 205 6.0 10.0 0.00 0.00 0.00 90 1015.8
20200710024017 74 188 4.0 10.0 0.00 0.00 0.00 90 1016.5
20200710023553 74 217 4.0 11.0 0.00 0.00 0.00 90 1016.7
20200710023039 74 237 5.0 13.0 0.00 0.00 0.00 90 1016.5
20200710023019 74 208 4.0 11.0 0.00 0.00 0.00 90 1015.6
20200710022519 74 223 5.0 14.0 0.00 0.00 0.00 90 1016.5
20200710022026 74 157 5.0 16.0 0.00 0.00 0.00 90 1016.5
20200710021532 74 197 6.0 16.0 0.00 0.00 0.00 90 1016.6
20200710021510 74 216 5.0 13.0 0.00 0.00 0.00 90 1015.8
20200710021018 74 132 5.0 14.0 0.00 0.00 0.00 90 1016.5
20200710020518 75 152 7.0 16.0 0.00 0.00 0.00 89 1016.5
20200710020037 75 119 7.0 16.0 0.00 0.00 0.00 89 1016.4
20200710020008 75 158 7.0 16.0 0.00 0.00 0.00 90 1015.7
20200710015530 75 199 7.0 16.0 0.00 0.01 0.00 89 1016.4
20200710015020 75 174 6.0 16.0 0.00 0.01 0.00 89 1016.4
20200710014618 75 198 6.0 13.0 0.00 0.01 0.00 89 1016.4
20200710014533 75 206 5.0 13.0 0.00 0.01 0.00 89 1015.6
20200710014017 75 202 6.0 15.0 0.00 0.01 0.00 89 1016.4
20200710013517 75 192 6.0 15.0 0.00 0.01 0.00 89 1016.3
20200710013054 75 197 7.0 16.0 0.00 0.01 0.00 89 1016.3
20200710012518 75 195 7.0 16.0 0.00 0.01 0.00 88 1016.3
20200710012017 75 195 6.0 14.0 0.00 0.01 0.00 88 1016.2
20200710011637 76 110 7.0 15.0 0.00 0.01 0.00 88 1016.2
20200710011509 75 188 7.0 15.0 0.00 0.01 0.00 88 1015.5
20200710011018 76 211 6.0 15.0 0.00 0.01 0.00 88 1016.1
20200710010523 76 212 7.0 15.0 0.00 0.01 0.00 88 1016.1
20200710010033 76 171 7.0 13.0 0.00 0.01 0.00 88 1016.1
20200710010019 76 117 7.0 14.0 0.00 0.01 0.00 88 1015.4
20200710005521 76 196 6.0 13.0 0.00 0.15 0.00 87 1016.1
20200710005020 76 202 5.0 16.0 0.00 0.15 0.00 87 1016.0
20200710004558 76 223 6.0 16.0 0.00 0.15 0.00 87 1016.0
20200710004516 76 192 6.0 16.0 0.00 0.15 0.00 88 1015.4
20200710004027 76 186 6.0 13.0 0.00 0.15 0.00 87 1016.0
20200710003542 76 180 6.0 12.0 0.00 0.15 0.00 87 1015.9
20200710003040 77 142 5.0 12.0 0.00 0.15 0.00 87 1015.8
20200710003011 77 127 6.0 11.0 0.00 0.15 0.00 88 1015.2
20200710002529 77 134 5.0 11.0 0.00 0.15 0.00 87 1015.8